Portland Troutdale, OR

3:32 PM PDT on June 24, 2017 (GMT -0700)
Portland-Troutdale

Weather History for KTTD - March, 2013

Change the Weather History Date:

Friday, March 29, 2013

  Actual Average Record
Temperature  
Mean Temperature 59 °F 49 °F  
Max Temperature 69 °F 59 °F 76 °F (1994)
Min Temperature 49 °F 40 °F 31 °F (2008)
Degree Days  
Heating Degree Days 6 16  
Month to date heating degree days 488 515  
Cooling Degree Days 0 0  
Month to date cooling degree days 0 0  
Growing Degree Days 8 (Base 50)    
Moisture  
Dew Point 46 °F    
Average Humidity 64    
Maximum Humidity 86    
Minimum Humidity 42    
Precipitation  
Precipitation T in 0.14 in 1.50 in (1963)
Month to date precipitation 1.75 4.35  
Year to date precipitation 6.50 15.62  
Snow  
Snow 0.00 in - - ()
Month to date snowfall 0.0  
Snow Depth 0.00 in    
Sea Level Pressure  
Sea Level Pressure 30.17 in    
Wind  
Wind Speed 3 mph (North)    
Max Wind Speed 8 mph    
Max Gust Speed 12 mph    
Visibility 10 miles    
Events Rain    
T = Trace of Precipitation, MM = Missing Value Source: NWS Daily Summary

Daily Weather History Graph

Daily Weather History Graph

Search for Another Location

Airport or City:

Trip Planner

Search our weather history database for the weather conditions in past years. The results will help you decide how hot, cold, wet, or windy it might be!

Date:

Astronomy

Mar. 29, 2013 Rise Set
Actual Time 6:54 AM PDT 7:34 PM PDT
Civil Twilight 6:25 AM PDT 8:04 PM PDT
Nautical Twilight 5:49 AM PDT 8:39 PM PDT
Astronomical Twilight 5:12 AM PDT 9:16 PM PDT
Moon 10:51 PM PDT (3/29) 7:58 AM PDT (3/29)
Length of Visible Light 13h 39m
Length of Day
12h 39m
Waning Gibbous, 93% of the Moon is Illuminated
Mar 29
Waning Gibbous
Apr 2
Last Quarter
Apr 10
New
Apr 18
First Quarter
Apr 25
Full

Hourly Weather History & Observations

Time (PDT) Temp. Dew Point Humidity Pressure Visibility Wind Dir Wind Speed Gust Speed Precip Events Conditions
12:53 AM 53.1 °F 46.0 °F 77% 30.14 in 10.0 mi ENE 3.5 mph - N/A   Overcast
1:53 AM 52.0 °F 46.9 °F 83% 30.16 in 10.0 mi Calm Calm - 0.00 in   Overcast
2:53 AM 52.0 °F 46.9 °F 83% 30.17 in 10.0 mi East 3.5 mph - N/A   Overcast
3:53 AM 50.0 °F 46.0 °F 86% 30.17 in 10.0 mi Calm Calm - N/A   Overcast
4:53 AM 50.0 °F 46.0 °F 86% 30.18 in 10.0 mi ESE 3.5 mph - N/A   Overcast
5:40 AM 50.0 °F 46.4 °F 87% 30.18 in 10.0 mi Calm Calm - N/A   Overcast
5:53 AM 50.0 °F 46.0 °F 86% 30.18 in 10.0 mi East 3.5 mph - N/A   Overcast
6:04 AM 48.2 °F 46.4 °F 93% 30.18 in 10.0 mi East 5.8 mph - N/A   Overcast
6:53 AM 50.0 °F 46.0 °F 86% 30.19 in 10.0 mi Calm Calm - 0.00 in Rain Light Rain
7:53 AM 50.0 °F 46.0 °F 86% 30.19 in 10.0 mi Calm Calm - 0.00 in   Scattered Clouds
8:53 AM 52.0 °F 46.0 °F 80% 30.20 in 10.0 mi East 5.8 mph - N/A   Mostly Cloudy
9:53 AM 54.0 °F 46.9 °F 77% 30.20 in 10.0 mi Calm Calm - N/A   Scattered Clouds
10:53 AM 55.9 °F 48.0 °F 75% 30.20 in 10.0 mi West 4.6 mph - N/A   Overcast
11:53 AM 59.0 °F 48.9 °F 69% 30.20 in 10.0 mi West 4.6 mph - N/A   Overcast
12:53 PM 62.1 °F 48.9 °F 62% 30.19 in 10.0 mi WSW 6.9 mph - N/A   Overcast
1:53 PM 66.0 °F 48.9 °F 54% 30.17 in 10.0 mi SW 3.5 mph - N/A   Mostly Cloudy
2:53 PM 66.9 °F 48.0 °F 51% 30.16 in 10.0 mi NW 3.5 mph - N/A   Overcast
3:53 PM 68.0 °F 46.0 °F 45% 30.15 in 10.0 mi WSW 5.8 mph - N/A   Overcast
4:53 PM 68.0 °F 44.1 °F 42% 30.14 in 10.0 mi NW 3.5 mph - N/A   Overcast
5:53 PM 68.0 °F 44.1 °F 42% 30.14 in 10.0 mi NW 3.5 mph - N/A   Mostly Cloudy
6:53 PM 66.0 °F 44.1 °F 45% 30.13 in 10.0 mi NNW 3.5 mph - N/A   Clear
7:53 PM 60.1 °F 44.1 °F 55% 30.13 in 10.0 mi Calm Calm - N/A   Clear
8:53 PM 55.0 °F 45.0 °F 69% 30.14 in 10.0 mi Calm Calm - N/A   Clear
9:53 PM 53.1 °F 46.0 °F 77% 30.16 in 10.0 mi ESE 3.5 mph - N/A   Clear
10:53 PM 52.0 °F 46.0 °F 80% 30.18 in 10.0 mi Calm Calm - N/A   Clear
11:53 PM 51.1 °F 46.0 °F 83% 30.18 in 10.0 mi ENE 3.5 mph - N/A   Clear